SL-16 DEB, 22349

Orbit data source: Space-Track

SL-16 DEB, 22349 is space debris in LEO originally from a launch on Fri, 25 Dec 1992 UTC launched from the Tyuratam Missile And Space Complex (TTMTR). Debris objects in space refer to the collection of defunct objects orbiting the Earth. Examples of debris include non-operational satellites, rocket bodies, and fragments generated from explosions, collisions, or faulty payload assembly.

Loading next visibility...
Identifier
22349, 1992-093AN
Orbit
LEO
Country
Flag of CISCIS
Related business
Manufacturer
Unknown
Mission
Spacecraft
Bus & Motor
Unknown
Mass
Unknown
Launch date (UTC)
1992-12-25 (33 years ago)
Launch vehicle
Unknown
Launch site
Tyuratam Missile And Space Complex (TTMTR)
Object type
Payload
Rocket body
Debris
Shape & HBR
Unknown
Radar Cross Section
Small (<0.1 m²)

Expand to show TLE details & history
Last TLE update: 20 hours ago

TLE from 20 hours ago
0 SL-16 DEB
1 22349U 92093AN  25242.16958744  .00000412  00000-0  37113-3 0  9997
2 22349  70.8204 165.7088 0183234 208.1682 222.2654 13.82473843642655
Epoch: 2025-08-30T04:04Z
TLE epoch observation values (Epoch: 2025-08-30T04:04:12.354Z)
Latitude
61.9918°
Longitude
166.63712°
Altitude
1,065.736 km
Speed
7.275 km/s
True Right ascension
13h 45m 11s
True Declination
61° 51' 18"
Sunlit
Object was in daylight at epoch
Visualization orbit readout
Latitude
Unknown
Longitude
Unknown
Altitude
Unknown
Speed
Unknown
Apparent Right ascension
Unknown
Apparent Declination
Unknown
Sunlit
N/A
Visualization observer readout
Local Sidereal Time
16:02:57
Azimuth
Unknown
Elevation
Unknown
Doppler factor
Unknown
Orbital elements
Apogee altitude
1,087.432 km
Perigee altitude
818.766 km
Semi-major axis
7,331.236 km
Eccentricity
0.01832
Inclination
70.8204°
RAAN
165.7088°
Arg. of periapsis
208.1682°
True anomaly
220.8769°
Mean anomaly
222.2654°
Eccentric anomaly
221.5688°
Mean motion
3.45762 °/min
Orbital period
104.12 mins
BSTAR
0.00037113
Loading maneuver chart data...
Computing Atmospheric mass density...
Loading historical data...
Loading historical data...
Loading historical data...
Loading historical data...
Loading historical data...
Loading historical data...
Loading historical data...

Documentation

Showing up to 5 results
|